Location: Sungai Liu
(2.3667°N, 113.8667°E)
Time: 13:42:15
(UTC+00:00)

Cosmos 1602 Rocket - Pass Details

Date: 20 May 2022
Orbit: 602 x 633 km, 82.5° (Epoch: 06 July)

Event Time Altitude Azimuth Distance (km) Brightness Sun altitude
Exits shadow 20:44:20 16° 173° (S) 1,630 5.5 -21.7°
Maximum altitude 20:47:47 64° 94° (E) 699 4.0 -20.9°
Drops below altitude 10° 20:52:12 10° 12° (NNE) 2,007 6.6 -19.9°
Sets 20:54:26 0° 9° (N) 2,912 7.5 -19.4°
